GW6292 Weather Reports


time (UTC)temp
C
wind
direction
speed
KPH
gust
KPH
rain 1hr
cm
rain 24hr
cm
rain mn
cm
humidity
%
barometer
mb
20260504120110 11 24 0.0 0.0 0.00 0.00 0.00 63 1015.8
20260504110537 7 24 0.0 0.0 0.00 0.00 0.00 81 1015.6
20260504100459 7 24 0.0 0.0 0.00 0.00 0.00 80 1015.5
20260504081857 7 24 0.0 0.0 0.00 0.00 0.00 82 1016.0
20260504081354 7 24 0.0 0.0 0.00 0.00 0.00 82 1016.0
20260504080850 6 24 0.0 0.0 0.00 0.00 0.00 80 1015.9
20260504080347 6 24 0.0 0.0 0.00 0.00 0.00 78 1016.0
20260504070315 6 24 0.0 0.0 0.00 0.00 0.00 82 1016.1
20260504060235 5 24 0.0 0.0 0.00 0.00 0.00 80 1016.4
20260504050703 5 24 0.0 0.0 0.00 0.00 0.00 84 1016.4
20260504050200 4 24 0.0 0.0 0.00 0.00 0.00 84 1016.5
20260504045657 4 24 0.0 0.0 0.00 0.00 0.00 84 1016.5
20260504045157 5 24 0.0 0.0 0.00 0.00 0.00 84 1016.5
20260504044655 5 24 0.0 0.0 0.00 0.00 0.00 83 1016.3
20260504044152 5 24 0.0 0.0 0.00 0.00 0.00 84 1016.3
20260504043649 5 24 0.0 0.0 0.00 0.00 0.00 83 1016.3
20260504043146 5 24 0.0 0.0 0.00 0.00 0.00 82 1016.5
20260504042644 5 24 0.0 0.0 0.00 0.00 0.00 82 1016.4
20260504042140 5 24 0.0 0.0 0.00 0.00 0.00 81 1016.3
20260504041636 5 24 0.0 0.0 0.00 0.00 0.00 80 1016.3
20260504041132 5 24 0.0 0.0 0.00 0.00 0.00 82 1016.3
20260504040629 4 24 0.0 0.0 0.00 0.00 0.00 82 1016.2
20260504040126 5 24 0.0 0.0 0.00 0.00 0.00 81 1016.4
20260504035623 5 24 0.0 0.0 0.00 0.00 0.00 80 1016.4
20260504035119 5 24 0.0 0.0 0.00 0.00 0.00 80 1016.4
20260504034618 5 24 0.0 0.0 0.00 0.00 0.00 80 1016.2
20260504034114 5 24 0.0 0.0 0.00 0.00 0.00 80 1016.3
20260504033612 5 24 0.0 0.0 0.00 0.00 0.00 79 1016.4
20260504033109 5 24 0.0 0.0 0.00 0.00 0.00 78 1016.2
20260504032606 5 24 0.0 0.0 0.00 0.00 0.00 77 1016.2
20260504032103 5 24 0.0 0.0 0.00 0.00 0.00 76 1016.1
20260504031600 5 24 0.0 0.0 0.00 0.00 0.00 76 1016.0
20260504031056 5 24 0.0 0.0 0.00 0.00 0.00 76 1016.0
20260504030553 5 24 0.0 0.0 0.00 0.00 0.00 76 1016.0
20260504030049 5 24 0.0 0.0 0.00 0.00 0.00 75 1016.0
20260504025547 5 24 0.0 0.0 0.00 0.00 0.00 75 1015.9
20260504025043 5 24 0.0 0.0 0.00 0.00 0.00 76 1015.7
20260504024540 5 24 0.0 0.0 0.00 0.00 0.00 76 1015.8
20260504024037 6 24 0.0 0.0 0.00 0.00 0.00 75 1015.7
20260504023534 6 24 0.0 0.0 0.00 0.00 0.00 73 1015.7
20260504023030 6 24 0.0 0.0 0.00 0.00 0.00 73 1015.8
20260504022525 6 24 1.6 1.6 0.00 0.00 0.00 71 1015.8
20260504022022 6 24 0.0 0.0 0.00 0.00 0.00 72 1015.8
20260504021520 6 24 0.0 0.0 0.00 0.00 0.00 71 1015.9
20260504021017 6 24 0.0 0.0 0.00 0.00 0.00 68 1015.8
20260504020514 6 24 0.0 0.0 0.00 0.00 0.00 68 1015.9
20260504020010 6 24 0.0 0.0 0.00 0.00 0.00 69 1015.8
20260504015507 7 24 0.0 0.0 0.00 0.00 0.00 69 1015.4
20260504015002 7 24 0.0 0.0 0.00 0.00 0.00 68 1015.7
20260504014458 7 24 0.0 0.0 0.00 0.00 0.00 66 1015.5
20260504013955 7 24 0.0 1.6 0.00 0.00 0.00 66 1015.6
20260504013454 7 24 0.0 0.0 0.00 0.00 0.00 65 1015.8
20260504012949 7 24 0.0 0.0 0.00 0.00 0.00 63 1015.5
20260504012448 7 24 0.0 0.0 0.00 0.00 0.00 64 1015.5
20260504011945 8 24 0.0 0.0 0.00 0.00 0.00 63 1015.5
20260504011442 8 24 0.0 0.0 0.00 0.00 0.00 61 1015.4
20260504010937 8 24 0.0 0.0 0.00 0.00 0.00 60 1015.4
20260504010434 8 24 0.0 0.0 0.00 0.00 0.00 57 1015.5
20260504005930 8 24 0.0 0.0 0.00 0.00 0.00 59 1015.3
20260504005427 9 24 0.0 0.0 0.00 0.00 0.00 61 1015.6
20260504004924 9 24 0.0 0.0 0.00 0.00 0.00 62 1015.3
20260504004422 10 24 0.0 0.0 0.00 0.00 0.00 54 1015.1
20260504003919 10 24 0.0 0.0 0.00 0.00 0.00 52 1015.3
20260504003415 10 23 0.0 0.0 0.00 0.00 0.00 52 1015.2
20260504002912 10 24 0.0 0.0 0.00 0.00 0.00 48 1015.1
20260504002409 11 24 0.0 0.0 0.00 0.00 0.00 48 1015.0
20260504001906 11 23 0.0 0.0 0.00 0.00 0.00 47 1015.1
20260504001404 11 24 0.0 0.0 0.00 0.00 0.00 46 1015.0
20260504000900 12 23 0.0 0.0 0.00 0.00 0.00 44 1014.7
20260504000357 12 23 0.0 0.0 0.00 0.00 0.00 43 1014.8
20260503235855 12 23 0.0 0.0 0.00 0.00 0.00 41 1014.9
20260503235353 13 24 0.0 0.0 0.00 0.00 0.00 40 1014.9
20260503234850 13 24 0.0 0.0 0.00 0.00 0.00 38 1014.8
20260503234347 14 23 0.0 0.0 0.00 0.00 0.00 35 1014.8
20260503233845 15 23 1.6 1.6 0.00 0.00 0.00 34 1014.7
20260503233341 15 23 0.0 0.0 0.00 0.00 0.00 32 1014.7
20260503232837 15 23 0.0 0.0 0.00 0.00 0.00 32 1014.8
20260503232335 15 23 3.2 4.8 0.00 0.00 0.00 32 1014.7
20260503231833 15 23 1.6 3.2 0.00 0.00 0.00 32 1014.6
20260503231330 15 23 1.6 3.2 0.00 0.00 0.00 31 1014.6
20260503230825 15 23 1.6 1.6 0.00 0.00 0.00 31 1014.6
20260503230322 15 23 3.2 3.2 0.00 0.00 0.00 30 1014.5
20260503225820 15 23 6.4 6.4 0.00 0.00 0.00 31 1014.4
20260503225316 15 23 3.2 3.2 0.00 0.00 0.00 31 1014.4
20260503224812 15 23 3.2 3.2 0.00 0.00 0.00 29 1014.6
20260503224310 16 23 3.2 4.8 0.00 0.00 0.00 31 1014.7
20260503223808 16 23 4.8 4.8 0.00 0.00 0.00 29 1014.7
20260503223305 16 23 0.0 0.0 0.00 0.00 0.00 29 1014.5
20260503222800 16 23 3.2 4.8 0.00 0.00 0.00 30 1014.7
20260503222259 16 23 1.6 1.6 0.00 0.00 0.00 29 1014.6
20260503221757 16 23 3.2 3.2 0.00 0.00 0.00 29 1014.7
20260503221255 16 23 3.2 4.8 0.00 0.00 0.00 29 1014.8
20260503220751 16 23 0.0 3.2 0.00 0.00 0.00 29 1014.7
20260503220248 16 23 0.0 0.0 0.00 0.00 0.00 30 1014.8
20260503215744 16 22 6.4 6.4 0.00 0.00 0.00 29 1014.8
20260503215242 16 23 3.2 4.8 0.00 0.00 0.00 29 1014.8
20260503214740 16 23 4.8 9.7 0.00 0.00 0.00 28 1014.9
20260503214236 16 23 3.2 6.4 0.00 0.00 0.00 27 1014.6
20260503213734 16 23 0.0 1.6 0.00 0.00 0.00 28 1014.6
20260503213231 16 23 3.2 4.8 0.00 0.00 0.00 27 1014.8
20260503212728 16 22 1.6 3.2 0.00 0.00 0.00 30 1014.9
20260503212226 16 23 3.2 4.8 0.00 0.00 0.00 28 1014.8
20260503211723 16 22 3.2 4.8 0.00 0.00 0.00 27 1014.8
20260503211219 16 22 3.2 4.8 0.00 0.00 0.00 28 1014.9
20260503210715 16 23 9.7 12.9 0.00 0.00 0.00 27 1014.8
20260503210213 16 23 9.7 16.1 0.00 0.00 0.00 27 1014.8
20260503205708 16 22 3.2 4.8 0.00 0.00 0.00 28 1014.8
20260503205204 16 23 6.4 9.7 0.00 0.00 0.00 29 1014.9
20260503204700 16 22 6.4 9.7 0.00 0.00 0.00 30 1014.7
20260503204158 16 23 9.7 11.3 0.00 0.00 0.00 28 1014.8
20260503203655 17 23 0.0 1.6 0.00 0.00 0.00 29 1014.9
20260503203153 16 22 3.2 9.7 0.00 0.00 0.00 29 1014.8
20260503202650 16 23 3.2 3.2 0.00 0.00 0.00 29 1015.0
20260503202148 16 22 1.6 1.6 0.00 0.00 0.00 29 1015.0
20260503201646 16 23 3.2 4.8 0.00 0.00 0.00 29 1015.0
20260503201143 16 23 4.8 6.4 0.00 0.00 0.00 28 1015.1
20260503200639 16 23 8.0 9.7 0.00 0.00 0.00 29 1015.1
20260503200135 16 23 6.4 9.7 0.00 0.00 0.00 30 1015.3
20260503195632 16 23 4.8 6.4 0.00 0.00 0.00 31 1015.1
20260503195129 16 23 8.0 11.3 0.00 0.00 0.00 29 1015.4
20260503194626 16 23 1.6 3.2 0.00 0.00 0.00 31 1015.4
20260503194121 16 23 6.4 9.7 0.00 0.00 0.00 31 1015.5
20260503193618 16 23 9.7 14.5 0.00 0.00 0.00 29 1015.7
20260503193114 15 23 4.8 4.8 0.00 0.00 0.00 33 1015.6
20260503192610 15 23 1.6 3.2 0.00 0.00 0.00 34 1015.9
20260503192106 15 23 4.8 11.3 0.00 0.00 0.00 34 1015.9
20260503191603 15 23 14.5 16.1 0.00 0.00 0.00 33 1015.8
20260503191100 15 23 4.8 6.4 0.00 0.00 0.00 31 1015.9
20260503190557 15 23 6.4 9.7 0.00 0.00 0.00 34 1016.0
20260503190054 15 23 3.2 3.2 0.00 0.00 0.00 34 1016.1
20260503185550 16 23 8.0 14.5 0.00 0.00 0.00 31 1016.0
20260503185050 16 23 8.0 11.3 0.00 0.00 0.00 34 1016.2
20260503184546 15 23 1.6 3.2 0.00 0.00 0.00 34 1016.2
20260503184043 15 23 6.4 6.4 0.00 0.00 0.00 37 1016.4
20260503183539 15 23 6.4 9.7 0.00 0.00 0.00 36 1016.3
20260503183037 15 23 3.2 3.2 0.00 0.00 0.00 37 1016.4
20260503182535 15 23 3.2 9.7 0.00 0.00 0.00 34 1016.4
20260503182033 15 23 8.0 11.3 0.00 0.00 0.00 34 1016.4
20260503181529 14 23 12.9 20.9 0.00 0.00 0.00 34 1016.6
20260503181026 14 23 9.7 12.9 0.00 0.00 0.00 34 1016.5
20260503180523 14 23 1.6 3.2 0.00 0.00 0.00 35 1016.7
20260503180020 13 23 12.9 16.1 0.00 0.00 0.00 35 1016.6
20260503175518 13 23 6.4 9.7 0.00 0.00 0.00 35 1016.6
20260503175014 13 23 12.9 17.7 0.00 0.00 0.00 36 1016.8
20260503174512 14 23 3.2 4.8 0.00 0.00 0.00 35 1016.8
20260503174008 13 23 12.9 17.7 0.00 0.00 0.00 36 1016.7
20260503173503 13 23 1.6 1.6 0.00 0.00 0.00 35 1016.6
20260503172959 13 23 14.5 14.5 0.00 0.00 0.00 35 1016.7
20260503172457 13 23 8.0 14.5 0.00 0.00 0.00 38 1017.0
20260503171954 13 23 6.4 6.4 0.00 0.00 0.00 34 1016.8
20260503171451 13 23 4.8 6.4 0.00 0.00 0.00 37 1016.9
20260503170948 13 23 8.0 9.7 0.00 0.00 0.00 35 1016.9
20260503170444 13 23 8.0 11.3 0.00 0.00 0.00 35 1016.7
20260503150837 11 24 3.2 4.8 0.00 0.00 0.00 43 1017.6
20260503150332 11 24 4.8 9.7 0.00 0.00 0.00 40 1017.6
20260503140257 10 24 3.2 4.8 0.00 0.00 0.00 43 1017.9
20260503131227 9 24 4.8 4.8 0.00 0.00 0.00 46 1017.9
20260503130724 9 24 6.4 6.4 0.00 0.00 0.00 45 1017.6
20260503130221 8 24 4.8 4.8 0.00 0.00 0.00 49 1018.0